GW5593 Weather Reports


Display with metric or nautical units.
time (UTC)temp
F
wind
direction
speed
MPH
gust
MPH
rain 1hr
in
rain 24hr
in
rain mn
in
humidity
%
barometer
mb
20260905162657 87 112 2.0 4.0 0.00 0.00 0.00 55 1015.0
20260905162143 87 121 1.0 2.0 0.00 0.00 0.00 56 1015.0
20260905161643 87 196 2.0 4.0 0.00 0.00 0.00 57 1015.0
20260905161143 86 105 3.0 5.0 0.00 0.00 0.00 56 1015.0
20260905160644 86 101 4.0 5.0 0.00 0.00 0.00 56 1015.0
20260905160143 85 219 1.0 3.0 0.00 0.00 0.00 58 1015.0
20260905155643 85 130 1.0 4.0 0.00 0.00 0.00 61 1015.0
20260905155143 85 113 4.0 6.0 0.00 0.00 0.00 58 1015.0
20260905154643 85 125 3.0 6.0 0.00 0.00 0.00 58 1015.0
20260905154143 85 121 2.0 5.0 0.00 0.00 0.00 59 1015.0
20260905153644 84 168 1.0 4.0 0.00 0.00 0.00 59 1015.0
20260905153143 83 136 3.0 6.0 0.00 0.00 0.00 60 1015.0
20260905152643 83 108 3.0 6.0 0.00 0.00 0.00 60 1015.0
20260905152143 83 132 3.0 5.0 0.00 0.00 0.00 62 1015.0
20260905151644 82 156 4.0 7.0 0.00 0.00 0.00 62 1015.0
20260905151143 82 125 4.0 5.0 0.00 0.00 0.00 62 1015.0
20260905150643 82 149 3.0 6.0 0.00 0.00 0.00 62 1015.0
20260905150143 82 125 3.0 5.0 0.00 0.00 0.00 62 1015.0
20260905145643 82 105 3.0 5.0 0.00 0.00 0.00 63 1015.0
20260905145143 81 128 4.0 6.0 0.00 0.00 0.00 63 1015.0
20260905144644 81 142 4.0 9.0 0.00 0.00 0.00 63 1015.0
20260905144143 80 129 4.0 10.0 0.00 0.00 0.00 64 1015.0
20260905143644 80 129 4.0 7.0 0.00 0.00 0.00 65 1015.0
20260905143148 80 116 4.0 6.0 0.00 0.00 0.00 65 1015.0
20260905142643 80 124 4.0 6.0 0.00 0.00 0.00 66 1015.0
20260905142144 80 140 3.0 5.0 0.00 0.00 0.00 66 1015.0
20260905141643 80 111 4.0 6.0 0.00 0.00 0.00 67 1015.0
20260905141145 79 108 4.0 7.0 0.00 0.00 0.00 68 1015.0
20260905140643 79 127 3.0 7.0 0.00 0.00 0.00 69 1015.0
20260905140143 78 130 5.0 7.0 0.00 0.00 0.00 68 1015.0
20260905135643 78 123 3.0 6.0 0.00 0.00 0.00 70 1015.0
20260905135143 78 99 3.0 6.0 0.00 0.00 0.00 70 1015.0
20260905134646 78 115 3.0 5.0 0.00 0.00 0.00 70 1015.0
20260905134143 78 115 2.0 6.0 0.00 0.00 0.00 72 1016.0
20260905133643 77 96 4.0 6.0 0.00 0.00 0.00 71 1015.0
20260905133144 77 150 3.0 5.0 0.00 0.00 0.00 72 1015.0
20260905132643 76 104 3.0 8.0 0.00 0.00 0.00 74 1015.0
20260905132144 76 134 3.0 6.0 0.00 0.00 0.00 73 1015.0
20260905131643 76 147 3.0 6.0 0.00 0.00 0.00 74 1016.0
20260905131143 76 84 2.0 5.0 0.00 0.00 0.00 74 1016.0
20260905130644 76 98 2.0 4.0 0.00 0.00 0.00 74 1016.0
20260905130148 76 161 2.0 4.0 0.00 0.00 0.00 75 1016.0
20260905125643 75 162 0.0 2.0 0.00 0.00 0.00 76 1016.0
20260905125143 75 129 2.0 4.0 0.00 0.00 0.00 77 1016.0
20260905124643 74 134 2.0 2.0 0.00 0.00 0.00 78 1016.0
20260905124143 74 81 1.0 2.0 0.00 0.00 0.00 80 1016.0
20260905123643 73 144 2.0 4.0 0.00 0.00 0.00 81 1016.0
20260905123143 73 106 0.0 2.0 0.00 0.00 0.00 81 1016.0
20260905122643 73 73 2.0 5.0 0.00 0.00 0.00 81 1016.0
20260905122143 73 132 2.0 3.0 0.00 0.00 0.00 81 1016.0
20260905121643 73 124 2.0 4.0 0.00 0.00 0.00 81 1016.0
20260905121143 73 167 0.0 1.0 0.00 0.00 0.00 82 1016.0
20260905120644 73 128 1.0 4.0 0.00 0.00 0.00 82 1016.0
20260905120143 72 349 1.0 2.0 0.00 0.00 0.00 83 1016.0
20260905115643 72 145 0.0 2.0 0.00 0.00 0.00 82 1016.0
20260905115143 72 149 1.0 2.0 0.00 0.00 0.00 84 1016.0
20260905114644 72 144 1.0 2.0 0.00 0.00 0.00 83 1015.0
20260905114144 73 60 2.0 3.0 0.00 0.00 0.00 83 1015.0
20260905113644 73 97 2.0 5.0 0.00 0.00 0.00 83 1015.0
20260905113143 73 97 3.0 6.0 0.00 0.00 0.00 85 1015.0
20260905112643 74 116 1.0 4.0 0.00 0.00 0.00 87 1015.0
20260905112143 74 295 1.0 3.0 0.00 0.00 0.00 86 1015.0
20260905111643 74 114 2.0 4.0 0.00 0.00 0.00 88 1015.0
20260905111144 74 92 3.0 6.0 0.00 0.00 0.00 93 1015.0
20260905110643 74 328 0.0 2.0 0.00 0.00 0.00 94 1014.0
20260905110144 74 360 0.0 0.0 0.00 0.00 0.00 94 1014.0
20260905105643 74 360 0.0 0.0 0.00 0.00 0.00 94 1014.0
20260905105143 74 360 0.0 0.0 0.00 0.00 0.00 94 1014.0
20260905104645 74 360 0.0 0.0 0.00 0.00 0.00 93 1014.0
20260905104143 74 360 0.0 0.0 0.00 0.00 0.00 93 1014.0
20260905103644 74 360 0.0 0.0 0.00 0.00 0.00 93 1014.0
20260905103143 74 360 0.0 0.0 0.00 0.00 0.00 93 1014.0
20260905102643 74 360 0.0 0.0 0.00 0.00 0.00 93 1014.0
20260905102143 74 360 0.0 0.0 0.00 0.00 0.00 92 1014.0
20260905101643 74 360 0.0 0.0 0.00 0.00 0.00 92 1014.0
20260905101144 75 360 0.0 0.0 0.00 0.00 0.00 91 1014.0
20260905100643 75 360 0.0 0.0 0.00 0.00 0.00 91 1014.0
20260905100143 75 360 0.0 0.0 0.00 0.00 0.00 91 1014.0
20260905095643 75 360 0.0 0.0 0.00 0.00 0.00 91 1014.0
20260905095144 75 360 0.0 0.0 0.00 0.00 0.00 91 1014.0
20260905094644 76 360 0.0 0.0 0.00 0.00 0.00 92 1014.0
20260905094143 76 360 0.0 0.0 0.00 0.00 0.00 91 1014.0
20260905093643 76 360 0.0 0.0 0.00 0.00 0.00 91 1014.0
20260905093143 76 360 0.0 0.0 0.00 0.00 0.00 91 1014.0
20260905092643 76 210 0.0 1.0 0.00 0.00 0.00 91 1014.0
20260905092143 76 220 0.0 1.0 0.00 0.00 0.00 90 1014.0
20260905091643 76 308 0.0 0.0 0.00 0.00 0.00 90 1014.0
20260905091144 76 360 0.0 0.0 0.00 0.00 0.00 89 1014.0
20260905090643 76 360 0.0 0.0 0.00 0.00 0.00 89 1014.0
20260905090143 77 360 0.0 0.0 0.00 0.00 0.00 88 1014.0
20260905085644 77 360 0.0 0.0 0.00 0.00 0.00 88 1014.0
20260905085144 77 297 0.0 1.0 0.00 0.00 0.00 88 1014.0
20260905084643 77 360 0.0 0.0 0.00 0.00 0.00 88 1014.0
20260905084143 77 323 0.0 0.0 0.00 0.00 0.00 88 1014.0
20260905083644 77 316 0.0 1.0 0.00 0.00 0.00 87 1013.0
20260905083143 77 266 0.0 0.0 0.00 0.00 0.00 87 1013.0
20260905082643 77 360 0.0 0.0 0.00 0.00 0.00 88 1013.0
20260905082143 77 360 0.0 0.0 0.00 0.00 0.00 87 1013.0
20260905081644 77 360 0.0 0.0 0.00 0.00 0.00 88 1013.0
20260905081144 77 260 0.0 1.0 0.00 0.00 0.00 87 1013.0
20260905080643 77 259 0.0 1.0 0.00 0.00 0.00 87 1013.0
20260905080143 77 360 0.0 0.0 0.00 0.00 0.00 88 1013.0
20260905075643 77 360 0.0 0.0 0.00 0.00 0.00 88 1013.0
20260905075143 77 360 0.0 0.0 0.00 0.00 0.00 88 1013.0
20260905074644 77 292 0.0 1.0 0.00 0.00 0.00 88 1013.0
20260905074145 77 195 0.0 2.0 0.00 0.00 0.00 88 1013.0
20260905073643 76 218 0.0 1.0 0.00 0.00 0.00 89 1013.0
20260905073143 76 360 0.0 0.0 0.00 0.00 0.00 90 1013.0
20260905072643 76 320 0.0 1.0 0.00 0.00 0.00 91 1013.0
20260905072143 76 301 0.0 1.0 0.00 0.00 0.00 92 1013.0
20260905071643 76 360 0.0 0.0 0.00 0.00 0.00 92 1013.0
20260905071143 76 360 0.0 0.0 0.00 0.00 0.00 92 1013.0
20260905070644 76 293 0.0 1.0 0.00 0.00 0.00 92 1013.0
20260905070143 76 360 0.0 0.0 0.00 0.00 0.00 92 1013.0
20260905065643 76 360 0.0 0.0 0.00 0.00 0.00 92 1013.0
20260905065144 76 360 0.0 0.0 0.00 0.00 0.00 92 1014.0
20260905064643 76 360 0.0 0.0 0.00 0.00 0.00 92 1014.0
20260905064143 76 360 0.0 0.0 0.00 0.00 0.00 92 1014.0
20260905063644 76 360 0.0 0.0 0.00 0.00 0.00 92 1014.0
20260905063144 76 360 0.0 0.0 0.00 0.00 0.00 92 1014.0
20260905062643 76 360 0.0 0.0 0.00 0.00 0.00 92 1014.0
20260905062143 76 360 0.0 0.0 0.00 0.00 0.00 92 1014.0
20260905061643 76 360 0.0 0.0 0.00 0.00 0.00 92 1014.0
20260905061144 76 360 0.0 0.0 0.00 0.00 0.00 91 1014.0
20260905060644 77 360 0.0 0.0 0.00 0.00 0.00 91 1014.0
20260905060143 77 360 0.0 0.0 0.00 0.00 0.00 91 1014.0
20260905055643 77 131 0.0 0.0 0.00 0.00 0.00 91 1014.0
20260905055143 77 360 0.0 0.0 0.00 0.00 0.00 91 1014.0
20260905054643 77 360 0.0 0.0 0.00 0.00 0.00 91 1014.0
20260905054143 77 360 0.0 0.0 0.00 0.00 0.00 90 1014.0
20260905053643 77 360 0.0 0.0 0.00 0.00 0.00 90 1014.0
20260905053143 77 360 0.0 0.0 0.00 0.00 0.00 90 1014.0
20260905052643 77 360 0.0 0.0 0.00 0.00 0.00 90 1014.0
20260905052143 77 360 0.0 0.0 0.00 0.00 0.00 90 1014.0
20260905051643 77 360 0.0 0.0 0.00 0.00 0.00 90 1014.0
20260905051143 78 360 0.0 0.0 0.00 0.00 0.00 90 1014.0
20260905050646 78 360 0.0 0.0 0.00 0.00 0.00 90 1014.0
20260905050143 78 360 0.0 0.0 0.00 0.00 0.00 90 1014.0
20260905045643 78 338 0.0 1.0 0.00 0.00 0.00 90 1014.0
20260905045143 78 360 0.0 0.0 0.00 0.00 0.00 89 1014.0
20260905044643 78 243 0.0 0.0 0.00 0.00 0.00 89 1014.0
20260905044143 78 360 0.0 0.0 0.00 0.00 0.00 89 1014.0
20260905043643 78 360 0.0 0.0 0.00 0.00 0.00 88 1014.0
20260905043143 78 179 0.0 2.0 0.00 0.00 0.00 88 1014.0
20260905042643 78 184 0.0 1.0 0.00 0.00 0.00 88 1015.0
20260905042143 78 164 0.0 1.0 0.00 0.00 0.00 88 1015.0
20260905041643 78 360 0.0 0.0 0.00 0.00 0.00 87 1015.0
20260905041143 79 360 0.0 0.0 0.00 0.00 0.00 87 1015.0
20260905040644 79 360 0.0 0.0 0.00 0.00 0.00 87 1015.0
20260905040143 79 360 0.0 0.0 0.00 0.00 0.00 87 1015.0
20260905035643 79 107 0.0 1.0 0.00 0.00 0.00 87 1015.0
20260905035143 79 44 0.0 1.0 0.00 0.00 0.00 87 1015.0
20260905034643 79 42 0.0 1.0 0.00 0.00 0.00 87 1015.0
20260905034145 79 360 0.0 0.0 0.00 0.00 0.00 87 1015.0
20260905033644 79 360 0.0 0.0 0.00 0.00 0.00 87 1015.0
20260905033147 79 360 0.0 0.0 0.00 0.00 0.00 86 1015.0
20260905032643 79 360 0.0 0.0 0.00 0.00 0.00 85 1015.0
20260905032144 79 360 0.0 0.0 0.00 0.00 0.00 85 1015.0
20260905031643 80 360 0.0 0.0 0.00 0.00 0.00 84 1015.0
20260905031143 80 360 0.0 0.0 0.00 0.00 0.00 84 1015.0
20260905030644 80 360 0.0 0.0 0.00 0.00 0.00 83 1015.0
20260905030143 80 360 0.0 0.0 0.00 0.00 0.00 83 1015.0
20260905025643 81 185 0.0 1.0 0.00 0.00 0.00 82 1015.0
20260905025144 81 360 0.0 0.0 0.00 0.00 0.00 82 1014.0
20260905024643 81 137 0.0 2.0 0.00 0.00 0.00 82 1014.0
20260905024144 81 135 2.0 3.0 0.00 0.00 0.00 83 1014.0
20260905023643 81 360 0.0 0.0 0.00 0.00 0.00 84 1014.0
20260905023144 81 360 0.0 0.0 0.00 0.00 0.00 83 1014.0
20260905022643 81 360 0.0 0.0 0.00 0.00 0.00 83 1014.0
20260905022144 81 360 0.0 0.0 0.00 0.00 0.00 82 1014.0
20260905021644 82 283 0.0 0.0 0.00 0.00 0.00 82 1014.0
20260905021143 82 360 0.0 0.0 0.00 0.00 0.00 81 1014.0
20260905020644 82 360 0.0 0.0 0.00 0.00 0.00 80 1014.0
20260905020144 82 360 0.0 0.0 0.00 0.00 0.00 80 1014.0
20260905015643 82 360 0.0 0.0 0.00 0.00 0.00 80 1014.0
20260905015143 82 305 0.0 0.0 0.00 0.00 0.00 80 1014.0
20260905014643 82 269 0.0 1.0 0.00 0.00 0.00 80 1014.0
20260905014144 82 281 0.0 0.0 0.00 0.00 0.00 80 1014.0
20260905013643 82 360 0.0 0.0 0.00 0.00 0.00 81 1014.0
20260905013143 83 360 0.0 0.0 0.00 0.00 0.00 80 1014.0
20260905012643 83 266 0.0 1.0 0.00 0.00 0.00 79 1014.0
20260905012143 83 360 0.0 0.0 0.00 0.00 0.00 78 1014.0
20260905011643 84 360 0.0 0.0 0.00 0.00 0.00 77 1014.0
20260905011143 84 360 0.0 0.0 0.00 0.00 0.00 77 1014.0
20260905010643 85 360 0.0 0.0 0.00 0.00 0.00 76 1014.0
20260905010144 85 37 0.0 0.0 0.00 0.00 0.00 76 1014.0
20260905005643 85 273 0.0 0.0 0.00 0.00 0.00 76 1014.0
20260905005143 85 360 0.0 0.0 0.00 0.00 0.00 73 1014.0
20260905004643 86 360 0.0 0.0 0.00 0.00 0.00 72 1014.0
20260905004143 86 360 0.0 0.0 0.00 0.00 0.00 71 1014.0
20260905003643 87 20 0.0 1.0 0.00 0.00 0.00 70 1014.0
20260905003143 87 48 0.0 1.0 0.00 0.00 0.00 70 1014.0
20260905002643 88 360 0.0 0.0 0.00 0.00 0.00 71 1014.0
20260905002143 88 33 0.0 0.0 0.00 0.00 0.00 67 1014.0
20260905001643 89 360 0.0 0.0 0.00 0.00 0.00 66 1014.0
20260905001143 90 10 0.0 0.0 0.00 0.00 0.00 65 1014.0
20260905000643 90 341 0.0 1.0 0.00 0.00 0.00 64 1014.0
20260905000143 91 4 0.0 1.0 0.00 0.00 0.00 64 1014.0
20260904235643 92 2 0.0 1.0 0.00 0.00 0.00 64 1014.0
20260904235144 93 44 0.0 2.0 0.00 0.00 0.00 60 1014.0
20260904234643 94 28 0.0 1.0 0.00 0.00 0.00 58 1014.0
20260904234143 95 58 0.0 1.0 0.00 0.00 0.00 57 1014.0
20260904233643 96 32 0.0 1.0 0.00 0.00 0.00 55 1014.0
20260904233143 96 3 1.0 1.0 0.00 0.00 0.00 53 1014.0
20260904232643 97 5 0.0 2.0 0.00 0.00 0.00 52 1014.0
20260904232147 97 18 1.0 2.0 0.00 0.00 0.00 52 1014.0
20260904231644 96 358 1.0 2.0 0.00 0.00 0.00 53 1014.0
20260904231143 96 323 1.0 2.0 0.00 0.00 0.00 51 1014.0
20260904230643 96 340 1.0 2.0 0.00 0.00 0.00 52 1014.0
20260904230144 96 308 1.0 3.0 0.00 0.00 0.00 52 1014.0
20260904225643 96 313 1.0 2.0 0.00 0.00 0.00 53 1014.0
20260904225143 97 296 2.0 3.0 0.00 0.00 0.00 52 1014.0
20260904224643 98 301 2.0 3.0 0.00 0.00 0.00 49 1014.0
20260904224144 98 328 1.0 3.0 0.00 0.00 0.00 50 1014.0
20260904223644 98 131 2.0 3.0 0.00 0.00 0.00 51 1014.0
20260904223143 99 331 2.0 4.0 0.00 0.00 0.00 48 1014.0
20260904222643 100 322 3.0 4.0 0.00 0.00 0.00 48 1014.0
20260904222143 99 314 2.0 4.0 0.00 0.00 0.00 48 1014.0
20260904221644 99 317 1.0 3.0 0.00 0.00 0.00 48 1014.0
20260904221144 99 316 2.0 4.0 0.00 0.00 0.00 47 1014.0
20260904220645 99 306 2.0 3.0 0.00 0.00 0.00 47 1014.0
20260904220144 99 312 2.0 4.0 0.00 0.00 0.00 46 1014.0
20260904215643 99 292 2.0 3.0 0.00 0.00 0.00 47 1014.0
20260904215143 99 335 3.0 8.0 0.00 0.00 0.00 47 1014.0
20260904214645 99 312 1.0 2.0 0.00 0.00 0.00 47 1014.0
20260904214143 99 312 2.0 6.0 0.00 0.00 0.00 47 1014.0
20260904213643 99 308 2.0 3.0 0.00 0.00 0.00 48 1014.0
20260904213147 99 314 2.0 5.0 0.00 0.00 0.00 48 1014.0
20260904212644 99 309 2.0 4.0 0.00 0.00 0.00 48 1014.0
20260904212143 99 313 2.0 4.0 0.00 0.00 0.00 49 1014.0
20260904211644 99 282 2.0 11.0 0.00 0.00 0.00 48 1014.0
20260904211143 99 313 1.0 2.0 0.00 0.00 0.00 48 1014.0
20260904210643 99 316 3.0 13.0 0.00 0.00 0.00 48 1014.0
20260904210143 100 312 2.0 2.0 0.00 0.00 0.00 46 1014.0
20260904205643 100 313 1.0 2.0 0.00 0.00 0.00 47 1014.0
20260904205144 100 329 2.0 6.0 0.00 0.00 0.00 47 1014.0
20260904204643 100 311 2.0 4.0 0.00 0.00 0.00 47 1014.0
20260904204143 100 312 2.0 3.0 0.00 0.00 0.00 47 1014.0
20260904203644 100 309 2.0 4.0 0.00 0.00 0.00 47 1014.0
20260904203143 100 321 2.0 3.0 0.00 0.00 0.00 47 1014.0
20260904202643 100 323 3.0 9.0 0.00 0.00 0.00 47 1014.0
20260904202145 100 313 2.0 2.0 0.00 0.00 0.00 48 1014.0
20260904201643 100 313 3.0 4.0 0.00 0.00 0.00 48 1014.0
20260904201143 100 314 2.0 3.0 0.00 0.00 0.00 47 1015.0
20260904200644 100 313 2.0 4.0 0.00 0.00 0.00 47 1015.0
20260904200144 100 313 2.0 3.0 0.00 0.00 0.00 46 1015.0
20260904195643 99 315 2.0 2.0 0.00 0.00 0.00 48 1015.0
20260904195146 99 314 2.0 3.0 0.00 0.00 0.00 47 1015.0
20260904194643 99 140 3.0 4.0 0.00 0.00 0.00 47 1015.0
20260904194143 99 140 3.0 4.0 0.00 0.00 0.00 47 1015.0
20260904193644 99 136 2.0 4.0 0.00 0.00 0.00 47 1015.0
20260904193143 99 135 2.0 4.0 0.00 0.00 0.00 47 1015.0
20260904192643 99 141 2.0 3.0 0.00 0.00 0.00 47 1015.0
20260904192143 99 136 2.0 3.0 0.00 0.00 0.00 46 1015.0
20260904191643 99 136 2.0 4.0 0.00 0.00 0.00 51 1015.0
20260904191143 99 137 2.0 3.0 0.00 0.00 0.00 50 1015.0
20260904190643 99 137 2.0 2.0 0.00 0.00 0.00 50 1015.0
20260904190144 99 137 2.0 3.0 0.00 0.00 0.00 49 1015.0
20260904185644 99 135 2.0 3.0 0.00 0.00 0.00 49 1015.0
20260904185144 98 136 2.0 3.0 0.00 0.00 0.00 48 1016.0
20260904184644 98 136 2.0 4.0 0.00 0.00 0.00 50 1016.0
20260904184143 98 136 2.0 3.0 0.00 0.00 0.00 50 1016.0
20260904183644 98 137 2.0 5.0 0.00 0.00 0.00 51 1016.0
20260904183145 98 140 3.0 6.0 0.00 0.00 0.00 49 1016.0
20260904182643 98 141 2.0 4.0 0.00 0.00 0.00 49 1016.0
20260904182144 98 137 2.0 4.0 0.00 0.00 0.00 49 1016.0
20260904181647 98 139 2.0 3.0 0.00 0.00 0.00 49 1016.0
20260904181144 98 138 2.0 3.0 0.00 0.00 0.00 50 1016.0
20260904180643 98 138 2.0 4.0 0.00 0.00 0.00 50 1016.0
20260904180143 98 136 2.0 3.0 0.00 0.00 0.00 50 1016.0
20260904175643 97 143 2.0 3.0 0.00 0.00 0.00 51 1016.0
20260904175143 97 139 1.0 3.0 0.00 0.00 0.00 51 1016.0
20260904174644 97 137 4.0 5.0 0.00 0.00 0.00 52 1016.0
20260904174143 97 137 2.0 4.0 0.00 0.00 0.00 52 1016.0
20260904173644 97 138 2.0 4.0 0.00 0.00 0.00 51 1016.0
20260904173143 96 252 2.0 5.0 0.00 0.00 0.00 53 1016.0
20260904172644 96 267 3.0 6.0 0.00 0.00 0.00 52 1016.0
20260904172145 96 314 3.0 5.0 0.00 0.00 0.00 53 1016.0
20260904171644 96 314 2.0 4.0 0.00 0.00 0.00 52 1017.0
20260904171143 96 313 2.0 4.0 0.00 0.00 0.00 53 1017.0
20260904170644 96 315 3.0 4.0 0.00 0.00 0.00 52 1017.0
20260904170143 96 315 2.0 4.0 0.00 0.00 0.00 53 1017.0
20260904165643 96 314 2.0 3.0 0.00 0.00 0.00 53 1017.0
20260904165143 97 314 2.0 3.0 0.00 0.00 0.00 53 1017.0
20260904164643 96 124 3.0 5.0 0.00 0.00 0.00 53 1017.0
20260904164145 96 291 2.0 3.0 0.00 0.00 0.00 54 1017.0
20260904163643 95 321 2.0 5.0 0.00 0.00 0.00 55 1017.0
20260904163144 95 306 3.0 5.0 0.00 0.00 0.00 55 1017.0